Regional Weather Roundup
Issued by NWS Wilmington, NC

Home | Current Version | Previous Version | Text Only | Print | Product List | Glossary On
Versions: 1 2 3 4 5 6 7 8 9 10 11 12 13 14 15 16 17 18 19 20 21 22 23 24 25 26 27 28 29 30 31 32 33 34 35 36 37 38 39 40 41 42 43 44 45 46 47 48 49 50
000
ASUS42 KILM 202013
RWRILM
RWRILM
REGIONAL HOURLY WEATHER ROUNDUP
NATIONAL WEATHER SERVICE WILMINGTON NC
300 PM EST MON FEB 20 2017

NOTE: "FAIR" INDICATES FEW OR NO CLOUDS BELOW 12,000 FEET WITH NO
SIGNIFICANT WEATHER AND/OR OBSTRUCTIONS TO VISIBILITY.

...............WFO WILMINGTON COUNTY WARNING AREA...............

......COASTAL NC AND SC COUNTIES......

CITY           SKY/WX    TMP DP  RH WIND       PRES   REMARKS
WILMINGTON     SUNNY     69  45  41 SE8       30.15S
N MYRTLE BEACH SUNNY     65  49  56 E12       30.15F
MYRTLE BEACH   SUNNY     66  48  52 SE13      30.18S

......INLAND NC AND SC COUNTIES.......

CITY           SKY/WX    TMP DP  RH WIND       PRES   REMARKS
LUMBERTON      SUNNY     73  43  33 CALM      30.14F
ELIZABETHTOWN  SUNNY     74  43  33 CALM      30.15S
WHITEVILLE     SUNNY     74  44  34 N3        30.14F
FLORENCE       SUNNY     74  44  34 SE3       30.14F
DARLINGTON     SUNNY     74  46  36 SE5       30.15F
KINGSTREE      FAIR      73  43  33 CALM      30.14S
HARTSVILLE     FAIR      73  43  33 E7        30.14F
BENNETTSVILLE  NOT AVBL
CONWAY         FAIR      73  45  35 NE7       30.14S
GEORGETOWN     FAIR      66  46  48 SE9       30.17S
MARION         FAIR      72  45  37 CALM      30.15S

....................REST OF NORTH CAROLINA......................

.........EASTERN NC.........

CITY           SKY/WX    TMP DP  RH WIND       PRES   REMARKS
CAPE HATTERAS  SUNNY     60  46  59 N8        30.18R
JACKSONVILLE   SUNNY     72  39  30 NE8       30.16S
MOREHEAD CITY  SUNNY     68  43  40 NE9       30.17R
KENANSVILLE    NOT AVBL
NEW BERN       SUNNY     70  41  34 E8        30.17R
ELIZABETH CITY SUNNY     64  40  41 NE12      30.17F

.........CENTRAL NC.........

CITY           SKY/WX    TMP DP  RH WIND       PRES   REMARKS
RALEIGH DURHAM PTSUNNY   72  31  22 VRB3      30.17F
ROCKY MOUNT    SUNNY     70  36  28 N5        30.16F
ROANOKE RAPIDS NOT AVBL
FAYETTEVILLE   SUNNY     74  39  28 VRB3      30.15F
HOFFMAN        SUNNY     72  40  31 NE3       30.15R

.........WESTERN NC.........

CITY           SKY/WX    TMP DP  RH WIND       PRES   REMARKS
CHARLOTTE      PTSUNNY   72  37  28 VRB3      30.16F
GREENSBORO     CLOUDY    71  37  28 S5        30.15F
HICKORY        NOT AVBL
BOONE          NOT AVBL
ASHEVILLE      NOT AVBL

.....................REST OF SOUTH CAROLINA.....................

.........EASTERN SC.........

CITY           SKY/WX    TMP DP  RH WIND       PRES   REMARKS
CHARLESTON     MOSUNNY   75  47  36 S10       30.14S
BEAUFORT MCAS  MOSUNNY   74  52  46 SE6       30.15S
HILTON HEAD    SUNNY     72  54  53 E6        30.17S

.........CENTRAL SC.........

CITY           SKY/WX    TMP DP  RH WIND       PRES   REMARKS
COLUMBIA       PTSUNNY   74  40  29 E5        30.14F
ORANGEBURG     MOSUNNY   73  41  31 MISG      30.15S
SUMTER SHAW    SUNNY     75  40  29 S3        30.13S

.........WESTERN SC.........

CITY           SKY/WX    TMP DP  RH WIND       PRES   REMARKS
GREENVILLE     NOT AVBL
ROCK HILL      SUNNY     72  38  29 CALM      30.17R
ANDERSON       CLOUDY    71  39  31 CALM      30.16F
CLEMSON        NOT AVBL
GREENWOOD      CLOUDY    71  40  32 SE6       30.17F


...................COASTAL AND OFFSHORE REPORTS..................

................LOCAL PIERS AND NC RESERVE................


STATION/POSITION TIME  SKY/WX   TEMP    WIND        PRES    VSBY
                                AIR SEA DIR/SP/G
                 (UTC)          (F)     (DEG/KT/KT) (MB)    (MI)
JOHNY MRCER PIER 1948            59 59  110/  7/  8 1020.1F
NC RESRV MASNBRO 1845            66     110/  3     1021.0
OCEAN CREST PIER NOT AVBL
SPRINGMAID  PIER 1948                               1020.7F


................COASTAL AND OFFSHORE BUOYS................


STATION/POSITION TIME  SKY/WX   TEMP    WIND        PRES    VSBY
                                AIR SEA DIR/SP/G
                 (UTC)          (F)     (DEG/KT/KT) (MB)    (MI)
DIMNDSHOAL 41025 1950            60 64   10/ 17/ 21 1021.3R
WVE H/P(F/S)=  4/ 6 SWL H/P/D(F/S/D)=  2/ 80/ 7

CAPE LOOKOUT     2000            58      40/ 15/ 16 1021.5R
ONSLOW BAY 41036 NOT AVBL
ONSLOW BAY 41064 1908            61      60/ 14/ 17 1021.2R
ONSLOW BAY 41159 1943               63                N/A
WVE H/P(F/S)=  3/ 4

MASNBO INL 41110 1929               57                N/A
WVE H/P(F/S)=  1/ 7

WILM HARBR 41108 1947               57                N/A
WVE H/P(F/S)=  2/ 4

27SE WRITB 41037 1908            62 62   60/ 12/ 19 1021.1R
FRYING PAN 41013 2000            63 65   30/ 12/ 14 1021.0
SUNST NRSH 41024 1908            60 57  130/ 10/ 12 1020.9F
CAPRS NRSH 41029 1908            60 60   90/  8/ 10 1020.8F
EDISTO     41004 1950            65 69   20/  8/ 10 1020.3F
WVE H/P(F/S)=  2/ 4 SWL H/P/D(F/S/D)=  2/100/ 8



..........OFFSHORE BUOYS BEYOND 100 NM OFFSHORE...........
.....IN A TRIANGLE---HAT TO BERMUDA TO BAHAMAS TO HAT.....


STATION/POSITION TIME  SKY/WX   TEMP    WIND        PRES    VSBY
                                AIR SEA DIR/SP/G
                 (UTC)          (F)     (DEG/KT/KT) (MB)    (MI)
150E HAT   41001 NOT AVBL
W BERMUDA  41048 1850            68 69  360/ 14/ 16 1014.2
WVE H/P(F/S)=  4/ 7 SWL H/P/D(F/S/D)=  3/230/ 7

ATLANTIC S 41049 1950            70 72  120/ 14/ 16 1012.2F
WVE H/P(F/S)=  4/ 5 SWL H/P/D(F/S/D)=  3/120/ 8

E BAHAMAS  41046 2000            76 77  330/ 17/ 21 1014.0
NE BAHAMAS 41047 2000            72 74  350/ 21/ 25 1013.6
120E CANVRL41010 NOT AVBL

END



USA.gov is the U.S. government's official web portal to all federal, state and local government web resources and services.